Location: Unspecified
(48.8582°N, 2.2947°E)
Time: 20:54:08
(UTC+02:00)

Daily predictions for brighter satellites

Satellite Brightness Start Highest point End
(mag) Time Altitude Azimuth Time Altitude Azimuth Time Altitude Azimuth
NOSS 3-2 (A) 3.6 19:54:19 10° SSW 20:00:27 78° SE 20:07:14 10° NE
Spot 1 4.5 20:00:14 10° SE 20:04:34 44° ENE 20:08:41 10° N
Cosmos 1743 Rocket 4.0 20:02:35 10° N 20:06:48 40° ENE 20:10:58 10° SE
FREGAT/IRIS 3.0 20:03:55 10° SSE 20:06:53 45° ENE 20:09:51 10° N
Helios 1B rocket 3.6 20:05:10 10° NE 20:08:28 23° E 20:11:45 10° SSE
Cosmos 2237 Rocket 3.5 20:03:09 10° WSW 20:08:32 42° NW 20:13:56 10° NNE
USA 238 DEB 4.5 20:02:49 10° WSW 20:09:44 56° NW 20:16:41 10° NE
USA 238 4.4 20:02:54 10° WSW 20:09:50 57° NW 20:16:47 10° NE
Cosmos 1674 3.5 20:06:39 10° N 20:10:08 30° ENE 20:13:36 10° SE
Cosmos 1953 2.6 20:06:51 10° SSE 20:10:38 45° E 20:14:28 10° NNE
Nadezhda 4 Rocket 4.2 20:04:56 10° N 20:11:05 51° ENE 20:17:06 10° SSE
HJ-1C 3.9 20:10:40 10° SE 20:13:50 39° ENE 20:17:01 10° N
METEOR-M 4.2 20:09:24 10° SSE 20:14:39 59° ENE 20:19:56 10° N
Resurs 1-3 4.1 20:11:13 10° SE 20:15:16 38° ENE 20:19:21 10° N
Cosmos 1470 3.8 20:15:46 10° SE 20:18:51 23° E 20:21:58 10° NE
FengYun 1-2 T 4.5 20:14:25 10° SE 20:19:40 48° ENE 20:24:55 10° N
Cosmos 1092 Rocket 4.3 20:15:50 10° N 20:21:48 46° ENE 20:27:40 10° SE
CENTAUR R/B 3.3 20:18:58 10° S 20:24:12 30° ESE 20:29:59 10° NE
Resurs 01 Rocket 1.7 20:20:47 10° SSE 20:25:09 59° ENE 20:29:32 10° N
COSMO-SKYMED 1 3.0 20:22:02 10° N 20:26:21 68° WNW 20:30:40 10° SSW
SL-8 R/B 4.4 20:24:20 10° SW 20:28:45 38° SSE 20:32:12 15° E
Cosmos 2058 4.3 20:26:04 10° NNE 20:29:05 19° ENE 20:30:41 16° E
CZ-4B DEB 3.8 20:27:06 12° SE 20:29:33 28° ENE 20:32:24 10° N
Cosmos 1544 3.3 20:26:22 10° S 20:30:00 50° E 20:33:39 10° NNE
ASTEX 1 4.0 20:26:00 10° NNE 20:30:24 32° E 20:34:46 10° SSE
ALOS 2.7 20:26:07 10° SE 20:30:28 40° ENE 20:34:51 10° N
SAR-Lupe-4 4.3 20:27:24 10° S 20:30:55 55° WSW 20:34:27 10° NNW
SL-16 R/B 2.9 20:25:48 10° SW 20:31:25 58° WNW 20:37:04 10° NNE
Cosmos 724 4.3 20:26:40 10° SSW 20:32:36 73° ESE 20:38:43 10° NE
FENGYUN 3A 3.9 20:29:57 10° SE 20:35:05 47° ENE 20:40:16 10° N
SJ-6B 3.6 20:34:09 10° S 20:38:09 59° W 20:42:14 10° NNW
Meteor 1-21 Rocket 4.4 20:34:32 10° NNW 20:40:06 77° W 20:45:37 10° S
NOSS 3-2 (C) 3.7 20:35:08 10° SW 20:41:20 78° NW 20:48:14 10° NE
Cosmos 2151 3.6 20:37:45 10° N 20:41:40 35° ENE 20:44:38 15° SE
GP-B 3.9 20:38:22 10° NNE 20:42:15 29° E 20:45:22 14° SE
Cosmos 1634 Rocket 4.4 20:37:21 10° SSE 20:43:01 39° E 20:48:41 10° NNE
USA 186 3.1 20:48:33 16° NE 20:48:33 16° NE 20:49:28 10° NNE
Cosmos-2242 3.1 20:43:51 10° SSW 20:48:14 81° W 20:52:40 10° N
H-2A R/B 4.2 20:51:44 12° NE 20:51:46 12° NE 20:53:23 10° NNE
Meteor 1-29 3.0 20:50:12 10° NNE 20:53:40 52° E 20:57:05 10° S
Cosmos 2251 Rocket 4.3 20:49:22 10° SSE 20:53:41 27° E 20:58:02 10° NE
Cosmos 2221 3.7 20:54:43 22° ENE 20:54:43 22° ENE 20:57:33 10° NE
Cosmos 1943 Rocket 2.5 20:49:28 10° NNW 20:54:56 47° NE 20:58:11 23° ESE
Cosmos 1758 4.1 20:51:51 10° SSW 20:55:53 57° WNW 20:59:58 10° N
Cosmos 1331 Rocket 4.2 20:54:05 10° NNW 20:59:20 55° ENE 21:02:39 22° SE
Cosmos 2034 Rocket 4.4 20:53:28 10° SSW 20:59:44 70° WNW 21:06:07 10° N
Cosmos 1633 Rocket 4.5 20:56:41 10° NNE 20:59:42 20° ENE 20:59:42 20° ENE
Cosmos 2369 Rocket 2.3 20:59:53 10° NNW 21:05:33 76° WSW 21:11:13 10° SSE
Meteor 1-28 Rocket 4.3 21:02:18 10° N 21:05:54 46° WNW 21:09:28 10° SW
USA 215 3.7 21:03:23 17° ENE 21:07:55 40° SE 21:13:57 10° SSW
ISS -3.2 21:06:41 10° SW 21:09:52 53° SSE 21:10:03 52° SE
Cosmos 1943 3.1 21:05:34 10° S 21:11:05 60° ESE 21:16:38 10° NE
Cosmos 1328 3.6 21:08:28 10° N 21:12:28 75° E 21:14:44 24° SSE
Cosmos 1302 Rocket 4.4 21:08:34 10° NNW 21:13:34 44° ENE 21:15:14 34° ESE
CZ-2D R/B 3.1 21:11:09 21° SSE 21:13:40 82° ENE 21:17:34 10° NNW
SL-14 R/B 3.5 21:10:32 10° N 21:14:30 49° ENE 21:15:14 43° ESE
Cosmos 1500 Rocket 4.1 21:10:27 10° NNW 21:14:50 60° W 21:19:13 10° S
Spot 2 Rocket 4.5 21:12:56 10° S 21:17:47 47° W 21:22:40 10° NNW
Abrixas 2.9 21:15:11 10° WSW 21:17:47 51° SSW 21:17:47 51° SSW
Cosmos 2263 4.3 21:13:23 10° NNW 21:19:12 81° WSW 21:23:27 19° SSE
Cosmos 1603 4.3 21:13:38 10° SW 21:19:18 61° WNW 21:25:03 10° NNE
Cosmos 1842 Rocket 3.7 21:16:06 10° SSW 21:20:26 76° W 21:24:51 10° N
CZ-4C R/B 4.1 21:16:32 10° WNW 21:21:29 28° NNW 21:27:03 10° NE
Helios 1A 4.2 21:18:01 10° S 21:22:01 42° W 21:26:03 10° NNW
H-2A R/B 2.8 21:20:16 23° S 21:22:34 81° WSW 21:26:27 10° NNW
Cosmos 1048 Rocket 4.2 21:18:12 10° SSW 21:23:28 72° WNW 21:28:43 10° NNE
Gbstr 26 Del rocket 3.5 21:19:15 10° SW 21:23:43 51° SE 21:25:07 40° E
ERBS 2.3 21:21:46 10° WNW 21:25:16 73° SW 21:25:37 66° S
Cosmos 1627 Rocket 4.4 21:19:35 10° N 21:25:49 84° E 21:32:05 10° S
SJ-11-01 4.5 21:25:38 44° E 21:26:25 49° ENE 21:30:57 10° N
Cosmos 1666 Rocket 4.0 21:24:05 10° N 21:28:11 42° ENE 21:28:11 42° ENE
Envisat 3.4 21:27:59 40° E 21:28:38 42° ENE 21:33:24 10° N
Cosmos 158 Rocket 3.7 21:25:17 10° SSW 21:30:10 85° ESE 21:35:06 10° NNE
Cosmos 1939 Rocket 3.8 21:31:29 33° NE 21:31:29 33° NE 21:34:18 10° N
Cosmos 482 Debris 4.3 21:31:22 10° WNW 21:33:17 49° NW 21:33:17 49° NW
Cosmos 1174 3.6 21:29:49 10° SSW 21:34:13 86° SE 21:34:49 63° NE
ATLAS 5 CENTAUR R/B 3.4 21:37:03 10° W 21:41:40 36° NNW 21:46:42 10° NE
Cosmos 1733 4.2 21:39:39 10° SSW 21:43:24 48° WNW 21:47:09 10° N
Helios 1B rocket 3.9 21:40:05 10° N 21:43:56 38° WNW 21:47:45 10° SW
Cosmos 2180 Rocket 4.4 21:46:27 41° SSE 21:48:20 58° E 21:54:22 10° NNE
Meteor 1-16 Rocket 4.1 21:50:01 10° SSW 21:55:18 81° WNW 22:00:42 10° N
Cosmos 1656 Rocket 3.5 21:50:13 10° NNW 21:55:38 63° ENE 21:55:58 62° E
H-2A R/B 4.0 21:57:05 15° NE 21:57:05 15° NE 21:58:54 10° NNE
ERS-1 Rocket 2.8 21:56:00 72° SE 21:56:27 79° ENE 22:01:30 10° NNW
Meteor 2-1 Rocket 4.2 21:52:34 15° S 21:57:27 80° E 22:03:24 10° NNE
Sich 1 3.3 21:54:00 10° N 21:57:36 57° NNE 21:57:36 57° NNE
Cosmos 1703 4.4 21:55:21 10° N 21:57:50 37° N 21:57:50 37° N
Resurs 01 Rocket 4.4 21:59:03 10° SW 22:02:00 17° W 22:04:58 10° NW
Cosmos 2279 Rocket 3.8 21:56:36 13° S 22:02:10 85° E 22:08:25 10° N
ARGOS 4.3 22:05:18 30° NE 22:05:18 30° NE 22:09:00 10° N
Cosmos 2058 3.9 22:02:20 10° NNW 22:06:16 44° W 22:06:57 40° WSW
ALOS 4.2 22:04:05 10° SSW 22:08:03 27° W 22:12:01 10° NW
SL-8 R/B 4.0 22:06:14 10° WSW 22:10:12 60° WSW 22:10:12 60° WSW
CENTAUR R/B 2.8 22:08:03 10° SW 22:14:17 69° NW 22:21:26 10° NE
Cosmos 1626 4.3 22:11:28 10° N 22:12:45 20° N 22:12:45 20° N
Cosmos 2266 Rocket 3.9 22:09:17 10° N 22:15:38 67° ENE 22:15:39 67° E
SPOT 5 4.1 22:23:49 30° N 22:23:49 30° N 22:26:10 10° N
H-2A R/B 3.5 22:28:52 34° N 22:28:52 34° N 22:31:30 10° NNW
Cosmos 2221 3.8 22:31:30 38° WNW 22:31:31 38° WNW 22:35:35 10° N
UNK 4.3 22:18:04 10° WNW 22:34:56 69° SSW 22:35:23 67° S
Cosmos 1980 Rocket 4.2 22:32:05 10° N 22:35:13 16° NNE 22:35:13 16° NNE
Cosmos 2251 Rocket 4.3 22:30:38 10° SW 22:35:42 49° WNW 22:40:50 10° NNE
Cosmos 1633 Rocket 4.5 22:33:49 10° NNW 22:36:47 36° NW 22:36:47 36° NW
Cosmos 1943 Rocket 3.5 22:33:33 10° NW 22:38:31 33° WSW 22:39:44 30° SW
USA 215 3.2 22:50:48 74° NNE 22:51:16 79° NNW 22:57:49 10° WSW
Terra 4.2 23:10:30 17° N 23:10:30 17° N 23:11:41 10° N
CZ-4C R/B 4.4 23:07:15 10° NW 23:12:11 23° N 23:14:21 20° NNE
ATLAS 3B R/B 4.2 23:14:02 10° NW 23:20:02 27° NNE 23:21:18 25° NNE
ATLAS 5 CENTAUR R/B 4.4 23:24:14 10° NW 23:27:58 19° N 23:29:29 17° NNE
Cosmos 2322 Rocket 4.5 23:28:24 10° N 23:30:42 16° NNE 23:30:42 16° NNE
H-2A R/B 4.1 23:37:43 23° NNW 23:37:43 23° NNW 23:39:37 10° NNW
